Flag for Australia Weather past 2 weeks in Perth, Western Australia, Australia

64 °F

Passing clouds.

Feels Like: 64 °F
Forecast: 56 / 66 °F
Wind: 10 mph from Northwest

Location: Belmont Perth Airport

Current Time: Oct 5, 2015 at 1:07:28 AM

Latest Report: Oct 5, 2015 at 12:30 AM

Visibility: N/A

Pressure: 30.01 "Hg

Humidity: 83%

Dew point: 59 °F

Location of PerthLocation

Historic Weather in Perth — Graph


Perth temperature yesterday

Maximum temperature yesterday: 73 °F (at 10:00 AM)
Minimum temperature yesterday: 61 °F (at 2:00 AM)
Average temperature yesterday: 66 °F

Past Weeks' High & Low Weather Summary

High91 °F (Oct 1, 12:00 PM)100% (Sep 25, 2:00 AM)30.45 "Hg (Sep 25, 2:00 AM)
Low46 °F (Sep 20, 4:00 AM)15% (Sep 24, 11:30 AM)29.95 "Hg (Sep 28, 1:00 PM)
Average64 °F58%30.17 "Hg
* Reported Midnight between Sep 19 and Sep 20 — Midnight between Oct 4 and Oct 5, Perth, Weather by CustomWeather, © 2015

Note: Actual official high and low records may vary slightly from our data, if they occured in-between our weather recording intervals... More about our weather records


Perth weather history for previous 24 hours

Time TempWeatherWind HumidityBarometerVisibility
12:00 AM
Mon, Oct 5
64 °FPassing clouds.8 mph83%30.04 "HgN/A
11:30 PM
Sun, Oct 4
64 °FPassing clouds.9 mph78%30.04 "HgN/A
11:00 PM64 °FPassing clouds.10 mph83%30.04 "HgN/A
10:00 PM64 °FPassing clouds.10 mph78%30.07 "HgN/A
9:00 PM64 °FPassing clouds.12 mph78%30.07 "HgN/A
8:30 PM66 °FPassing clouds.10 mph73%30.09 "HgN/A
8:00 PM66 °FPassing clouds.13 mph68%30.09 "HgN/A
7:30 PM66 °FPassing clouds.10 mph68%30.09 "HgN/A
7:00 PM66 °FPassing clouds.14 mph68%30.09 "HgN/A
6:30 PM66 °FPassing clouds.16 mph68%30.09 "HgN/A
6:00 PM68 °FPartly cloudy.15 mph64%30.07 "HgN/A
5:30 PM68 °FPassing clouds.14 mph64%30.07 "HgN/A
5:00 PM68 °FBroken clouds.15 mph73%30.09 "HgN/A
4:30 PM68 °FSprinkles. Partly sunny.14 mph69%30.09 "HgN/A
4:00 PM68 °FPartly sunny.17 mph69%30.07 "HgN/A
3:30 PM70 °FPartly sunny.16 mph64%30.07 "HgN/A
3:00 PM72 °FPartly sunny.16 mph57%30.07 "HgN/A
2:30 PM72 °FSunny.18 mph57%30.07 "Hg10 mi
2:00 PM73 °FScattered clouds.18 mph53%30.07 "HgN/A
1:30 PM73 °FPassing clouds.17 mph53%30.07 "HgN/A
1:00 PM73 °FPassing clouds.17 mph57%30.07 "HgN/A
12:00 PM73 °FScattered clouds.16 mph57%30.09 "HgN/A
11:30 AM73 °FScattered clouds.14 mph57%30.09 "HgN/A
11:00 AM73 °FScattered clouds.14 mph57%30.09 "HgN/A
10:30 AM73 °FScattered clouds.15 mph57%30.12 "HgN/A
10:00 AM73 °FScattered clouds.14 mph61%30.12 "HgN/A
9:30 AM70 °FScattered clouds.12 mph73%30.12 "HgN/A
9:00 AM70 °FPartly sunny.9 mph78%30.12 "HgN/A
8:30 AM64 °FPartly sunny.12 mph94%30.12 "Hg3 mi
8:00 AM63 °FDense fog.9 mph100%30.12 "Hg1 mi
7:30 AM63 °FFog.8 mph94%30.12 "Hg0 mi
7:00 AM61 °FFog.8 mph100%30.12 "Hg0 mi
6:30 AM61 °FFog.10 mph100%30.12 "Hg0 mi
6:00 AM61 °FFog.8 mph94%30.12 "Hg0 mi
5:30 AM61 °FFog.8 mph94%30.12 "Hg0 mi
5:00 AM61 °FFog.6 mph100%30.12 "Hg0 mi
4:00 AM61 °FFog.7 mph100%30.12 "Hg1 mi
3:30 AM61 °FFog.6 mph100%30.12 "Hg1 mi
3:00 AM61 °FPassing clouds.6 mph94%30.12 "HgN/A
2:30 AM61 °FPassing clouds.6 mph100%30.12 "HgN/A
2:00 AM61 °FPassing clouds.6 mph100%30.12 "HgN/A
1:00 AM63 °FPassing clouds.7 mph94%30.15 "HgN/A
Weather by CustomWeather, © 2015

See weather overviewHow to use our weather pages